• Join FlightAware (Why Join?)
  • Login
  • US Flag 
01:14AM EST


 

Airport Tracker/Info


-or-


 

Live Flight TrackerFlight Track Log ✈ ASQ6162 ✈ 09-May-2013 ✈ KORD - KCAE

Flight Track Log - Related Links

Times and Time Zones

All times are in EDT time to prevent confusion due to time zone crossing. See the ASQ6162 flight status page for this flight to view local times or setup timezone preferences in your user account.

Time Position Orientation Groundspeed Altitude Reporting Facility
EDT Latitude Longitude Course Direction KTS MPH feet Rate Location/Type
03:16PM 41.9167 -87.9000 154° Southeast 180 207 2,800  Level Chicago TRACON
03:18PM 41.8258 -87.8408 154° Southeast 237 273 5,700 1,860 Climbing Chicago Center
03:19PM 41.7650 -87.7994 153° Southeast 244 281 7,800 1,980 Climbing Chicago Center
03:20PM 41.7014 -87.7558 153° Southeast 254 292 9,900 1,740 Climbing Chicago Center
03:21PM 41.6322 -87.7117 154° Southeast 268 308 11,500 1,680 Climbing Chicago Center
03:22PM 41.5433 -87.6511 153° Southeast 293 337 13,400 1,620 Climbing Chicago Center
03:23PM 41.4683 -87.6000 153° Southeast 300 345 14,900 1,500 Climbing Chicago Center
03:24PM 41.3886 -87.5658 162° South 306 352 16,500 1,500 Climbing Chicago Center
03:25PM 41.3053 -87.5519 173° South 302 348 18,000 1,200 Climbing Chicago Center
03:26PM 41.2203 -87.5369 172° South 306 352 19,000 900 Climbing Chicago Center
03:27PM 41.1281 -87.5147 170° South 331 381 19,900 840 Climbing Chicago Center
03:28PM 41.0303 -87.4878 168° South 354 407 20,800 960 Climbing Chicago Center
03:29PM 40.9064 -87.4525 168° South 376 433 21,900 1,080 Climbing Chicago Center
03:30PM 40.8006 -87.4272 170° South 385 443 23,100 1,200 Climbing Chicago Center
03:31PM 40.6978 -87.4006 169° South 381 438 24,400 1,200 Climbing Chicago Center
03:32PM 40.5967 -87.3722 168° South 374 430 25,600 1,140 Climbing Chicago Center
03:33PM 40.4953 -87.3472 169° South 370 426 26,800 1,200 Climbing Chicago Center
03:34PM 40.3981 -87.2825 153° Southeast 376 433 28,100 1,200 Climbing Chicago Center
03:35PM 40.3081 -87.2147 150° Southeast 375 432 29,400 1,260 Climbing Chicago Center
03:36PM 40.2042 -87.1339 149° Southeast 366 421 30,800 1,080 Climbing Chicago Center
03:37PM 40.1142 -87.0647 150° Southeast 375 432 31,700 840 Climbing Chicago Center
03:38PM 40.0406 -87.0089 150° Southeast 377 434 32,500 1,080 Climbing Indianapolis Center
03:39PM 39.9317 -86.9261 150° Southeast 380 437 33,800 1,080 Climbing Indianapolis Center
03:40PM 39.8408 -86.8594 151° Southeast 378 435 34,800 720 Climbing Indianapolis Center
03:41PM 39.7497 -86.7928 151° Southeast 377 434 35,300 780 Climbing Indianapolis Center
03:42PM 39.6606 -86.7278 151° Southeast 373 429 36,500 720 Climbing Indianapolis Center
03:43PM 39.5728 -86.6656 151° Southeast 366 421 36,900 240 Climbing Indianapolis Center
03:44PM 39.4636 -86.5911 152° Southeast 372 428 37,000  Climbing Indianapolis Center
03:45PM 39.3711 -86.5203 149° Southeast 386 444 37,000  Level Indianapolis Center
03:46PM 39.2747 -86.4436 148° Southeast 405 466 37,000  Level Indianapolis Center
03:47PM 39.1753 -86.3636 148° Southeast 420 483 37,000  Level Indianapolis Center
03:49PM 39.0714 -86.2817 149° Southeast 436 502 37,000  Level Indianapolis Center
03:50PM 38.9431 -86.1808 149° Southeast 451 519 37,000  Level Indianapolis Center
03:51PM 38.8467 -86.1033 148° Southeast 461 531 37,000  Level Indianapolis Center
03:52PM 38.7111 -85.9969 149° Southeast 469 540 37,000  Level Indianapolis Center
03:53PM 38.5936 -85.9200 153° Southeast 473 544 37,000  Level Indianapolis Center
03:54PM 38.4717 -85.8608 159° South 467 537 37,000  Level Indianapolis Center
03:55PM 38.3497 -85.8028 160° South 465 535 37,000  Level Indianapolis Center
03:56PM 38.2292 -85.7403 158° South 466 536 37,000  Level Indianapolis Center
03:57PM 38.1169 -85.6522 148° Southeast 471 542 37,000  Level Indianapolis Center
03:58PM 38.0061 -85.5611 147° Southeast 471 542 37,000  Level Indianapolis Center
03:59PM 37.8944 -85.4708 147° Southeast 473 544 37,000  Level Indianapolis Center
04:00PM 37.7636 -85.3608 146° Southeast 466 536 37,000  Level Indianapolis Center
04:01PM 37.6522 -85.2714 148° Southeast 473 544 37,000  Level Indianapolis Center
04:02PM 37.5406 -85.1825 148° Southeast 475 547 37,000  Level Indianapolis Center
04:03PM 37.4300 -85.0933 147° Southeast 472 543 37,000  Level Indianapolis Center
04:04PM 37.3189 -85.0042 147° Southeast 474 545 37,000  Level Indianapolis Center
04:05PM 37.1892 -84.9000 147° Southeast 473 544 37,000  Level Indianapolis Center
04:06PM 37.0778 -84.8103 147° Southeast 475 547 37,000  Level Indianapolis Center
04:07PM 36.9656 -84.7222 148° Southeast 479 551 37,000  Level Indianapolis Center
04:08PM 36.8517 -84.6317 148° Southeast 482 555 37,000  Level Indianapolis Center
04:09PM 36.7383 -84.5422 148° Southeast 482 555 37,000  Level Indianapolis Center
04:10PM 36.6058 -84.4378 148° Southeast 483 556 37,000  Level Indianapolis Center
04:11PM 36.4858 -84.3447 148° Southeast 485 558 37,000  Level Indianapolis Center
04:12PM 36.3714 -84.2556 148° Southeast 485 558 37,000  Level Indianapolis Center
04:13PM 36.2731 -84.1803 148° Southeast 490 564 37,000  Level Atlanta Center
04:14PM 36.1564 -84.0928 149° Southeast 490 564 37,000  Level Atlanta Center
04:15PM 36.0436 -84.0028 147° Southeast 490 564 37,000  Level Atlanta Center
04:16PM 35.9311 -83.9156 148° Southeast 490 564 37,000  Level Atlanta Center
04:17PM 35.8536 -83.7850 126° Southeast 469 540 37,000  Level Atlanta Center
04:18PM 35.7947 -83.6469 118° Southeast 454 522 37,000 -360 Level Atlanta Center
04:19PM 35.7339 -83.5042 118° Southeast 460 529 36,300 -900 Descending Atlanta Center
04:20PM 35.6725 -83.3614 118° Southeast 466 536 35,300 -1,020 Descending Atlanta Center
04:21PM 35.6050 -83.2086 118° Southeast 461 531 34,300 -960 Descending Atlanta Center
04:22PM 35.5433 -83.0739 119° Southeast 451 519 33,400 -960 Descending Atlanta Center
04:23PM 35.4817 -82.9344 118° Southeast 457 526 32,400 -900 Descending Atlanta Center
04:24PM 35.4197 -82.7925 118° Southeast 462 532 31,600 -900 Descending Atlanta Center
04:25PM 35.3558 -82.6508 119° Southeast 467 537 30,600 -960 Descending Atlanta Center
04:26PM 35.2978 -82.5194 118° Southeast 476 548 29,700 -900 Descending Atlanta Center
04:27PM 35.2333 -82.3708 118° Southeast 481 554 28,800 -900 Descending Atlanta Center
04:28PM 35.1686 -82.2272 119° Southeast 481 554 27,900 -900 Descending Atlanta Center
04:29PM 35.1019 -82.0839 120° Southeast 481 554 27,000 -960 Descending Atlanta Center
04:30PM 35.0328 -81.9461 121° Southeast 481 554 26,000 -1,020 Descending Atlanta Center
04:31PM 34.9225 -81.8475 144° Southeast 478 550 25,000 -960 Descending Atlanta Center
04:32PM 34.8083 -81.7619 148° Southeast 489 563 24,100 -960 Descending Atlanta Center
04:33PM 34.6961 -81.6792 149° Southeast 478 550 23,100 -1,680 Descending Atlanta Center
04:34PM 34.5858 -81.5939 148° Southeast 478 550 20,800 -2,640 Descending Atlanta Center
04:35PM 34.4842 -81.5161 148° Southeast 462 532 17,900 -2,700 Descending Atlanta Center
04:38PM 34.2589 -81.3500 149° Southeast 405 466 12,000 -1,860 Descending Jacksonville Center
04:39PM 34.1789 -81.2911 149° Southeast 378 435 12,000  Level Jacksonville Center
04:40PM 34.1031 -81.2347 148° Southeast 334 384 12,000 -900 Level Jacksonville Center
04:41PM 34.0561 -81.1631 128° Southeast 316 364 10,300 -1,740 Descending Jacksonville Center
04:43PM 33.9333 -81.1167 157° South  Level FlightAware Approximate
04:50PM 33.9388 -81.1195 157° South  Level Estimated
04:51PM 33.9333 -81.1167 157° South  Level FlightAware Approximate
04:52PM 33.9388 -81.1195 157° South  Level Estimated